Tracking 18945 objects as of 20-Jan-2018
HD Live streaming from Space Station
objects crossing your sky now

SL-8 R/B

Track SL-8 R/B now!
10-day predictions
SL-8 R/B is classified as:


NORAD ID: 7004
Int'l Code: 1973-107B
Perigee: 332.7 km
Apogee: 546.6 km
Inclination: 73.9 °
Period: 93.2 minutes
Semi major axis: 6810 km
RCS: 5.7394 m2 (large)
Launch date: December 26, 1973
Source: Commonwealth of Independent States (former USSR) (CIS)
Launch site: PLESETSK MISSILE AND SPACE COMPLEX (PKMTR)

Note: This is a ROCKET BODY
aabbcc
Your satellite tracking list
Your tracking list is empty




NASA's NSSDC Master Catalog

Two Line Element Set (TLE):
1 07004U 73107B   18020.52285574  .00008513  00000-0  11489-3 0  9991
2 07004  73.9335 309.0099 0156992 123.7988 237.8287 15.44611467270693
Source of the keplerian elements: AFSPC